Wetbulb
56.72 56.77 56.91 56.96 57.23 57.14 57.04 57.73 58.09 58.36 58.58 58.97 58.97 59.32 59.59 59.78 58.83 58.95 56.32 60.92 62.21 65.59 62.87 56.51 56.88 56.80 56.98 55.18 57.87 58.70 52.06 50.40 52.47 53.59 58.46 61.61 59.77 65.18 67.12 66.71 68.67 69.31 68.64 69.39 69.66
56.33 56.29 56.27 56.26 56.81 56.93 56.65 56.95 57.57 57.91 58.17 58.56 58.62 58.77 59.19 59.19 57.27 56.02 62.48 68.37 66.98 65.37 55.88 53.67 54.59 55.42 53.10 53.39 54.76 54.01 50.84 51.38 55.08 55.87 58.47 61.64 62.49 64.09 64.86 65.47 66.05 67.08 69.22 70.11 68.99
55.72 55.80 55.71 55.80 56.06 56.44 56.52 56.79 57.21 57.31 57.75 57.97 58.12 58.46 58.76 58.74 56.22 57.21 68.75 67.65 66.61 65.20 55.70 56.30 56.73 55.25 52.21 53.67 53.19 52.84 49.33 52.95 54.44 55.98 57.24 57.93 61.96 61.42 63.25 62.64 65.55 65.55 67.64 69.16 69.27
55.10 55.16 55.04 55.29 55.38 55.67 55.86 56.10 56.49 56.80 56.89 57.08 57.44 58.04 58.92 59.35 53.05 62.04 67.74 67.48 66.93 58.83 55.00 55.13 54.91 52.51 51.40 50.55 53.86 50.27 52.84 53.26 54.29 55.66 55.72 55.47 63.36 56.86 59.36 63.35 68.33 68.67 69.22 68.71 67.77
54.37 54.65 54.61 54.66 55.10 55.43 55.54 55.74 56.09 56.13 56.16 56.66 57.36 57.99 58.97 58.04 56.90 64.50 68.31 66.27 57.81 57.57 55.38 55.37 53.32 52.74 50.68 52.18 53.45 51.48 52.54 54.17 54.97 54.72 54.97 56.87 63.79 64.80 64.95 67.30 68.44 68.82 68.35 67.41 67.55
54.70 54.22 54.08 54.38 54.87 55.40 55.49 55.51 55.39 55.33 55.67 56.85 57.62 57.21 57.96 52.56 63.63 65.55 63.88 57.96 57.13 56.69 57.17 57.11 54.55 55.32 53.48 53.30 52.54 53.73 53.07 53.48 53.98 53.67 54.40 55.68 64.91 65.68 65.32 67.26 66.86 67.16 66.76 67.16 67.33
54.39 54.29 54.19 54.35 54.82 55.09 55.41 55.12 54.75 54.77 55.98 58.47 58.47 59.30 56.94 55.75 61.93 64.23 63.15 59.90 57.77 57.59 57.15 58.42 57.33 55.27 55.39 53.57 55.34 53.95 50.75 52.63 52.81 53.07 52.60 59.68 61.12 61.05 65.69 66.11 65.22 65.56 66.34 66.65 66.99
53.75 53.73 53.71 54.06 54.43 54.63 54.96 54.48 54.52 54.88 57.90 58.58 58.70 59.48 55.07 61.45 62.11 62.00 61.54 58.97 59.44 60.19 58.89 58.30 58.58 57.12 55.78 56.58 54.38 51.18 52.55 48.45 53.02 54.37 53.93 58.02 55.15 63.15 65.98 65.01 63.94 64.73 65.28 65.57 65.42
53.36 53.21 53.63 53.25 54.06 54.36 54.32 53.87 54.20 56.30 60.24 57.93 58.29 58.36 53.68 61.67 57.67 61.15 60.87 57.11 57.87 58.24 58.70 59.36 57.63 54.69 55.18 52.00 50.53 50.82 48.37 49.49 52.99 56.52 53.40 53.18 56.36 62.85 65.61 64.98 63.88 64.28 64.33 63.98 62.84
53.19 52.94 53.03 53.44 53.44 53.69 53.17 53.38 58.22 56.32 58.92 60.36 59.06 55.71 59.12 55.86 57.83 60.07 61.54 59.07 56.08 56.14 55.52 55.12 53.94 51.56 51.57 50.16 45.37 46.97 47.53 50.39 52.30 55.11 53.95 55.11 55.44 62.04 63.65 64.17 63.65 63.83 63.56 62.79 61.56
52.99 52.84 52.78 52.95 53.32 52.89 53.01 59.30 57.66 57.35 58.45 54.83 55.05 55.07 55.74 58.83 59.71 59.03 60.35 57.86 57.36 55.44 50.95 53.61 49.43 47.44 50.00 51.77 51.15 50.80 50.35 49.36 52.21 58.15 55.72 54.89 58.54 60.70 62.44 63.50 63.26 63.32 63.35 62.55 61.47
52.11 52.76 52.70 52.80 52.76 52.55 53.30 57.61 54.35 56.10 51.30 56.34 58.84 57.14 59.16 59.36 55.79 58.34 60.28 55.06 54.28 51.18 53.03 51.38 48.05 51.67 52.79 52.21 50.99 50.44 49.77 50.47 54.73 57.69 56.79 55.64 57.79 60.97 61.90 62.40 63.61 63.44 63.28 62.61 60.11
51.89 51.96 52.28 52.37 52.04 55.97 58.79 54.83 58.45 58.48 51.91 53.45 55.57 55.27 55.44 57.37 54.95 55.53 57.88 55.86 53.21 51.45 51.96 49.42 51.53 53.47 51.79 50.91 50.01 49.85 49.41 50.61 52.70 56.44 57.14 55.20 54.17 56.16 58.99 62.58 63.39 64.39 64.77 63.48 60.11
51.42 51.62 51.74 51.61 52.54 55.97 54.15 58.85 59.96 59.86 48.56 50.92 53.20 54.23 56.27 56.63 53.16 58.01 59.12 56.40 53.57 51.55 52.27 51.57 53.02 52.03 50.45 49.71 50.63 47.65 51.60 51.66 52.18 51.80 47.94 54.05 45.34 56.11 59.06 59.16 61.23 62.87 63.60 62.12 60.81
51.06 51.45 51.27 50.39 52.55 53.88 55.84 57.69 57.93 58.26 40.26 53.00 53.68 58.31 56.21 54.22 55.18 55.11 59.25 56.72 52.25 52.26 52.49 50.17 51.15 50.20 49.85 50.46 51.76 49.19 52.66 51.63 53.67 53.19 51.46 51.28 47.97 51.09 57.08 56.60 58.55 61.53 62.99 62.53 61.88
50.64 50.90 50.87 56.22 54.66 58.35 59.69 59.32 56.72 47.18 40.11 49.91 53.57 52.26 51.60 53.08 54.11 56.02 55.34 57.97 56.34 53.03 53.30 51.28 54.79 52.49 52.14 52.77 52.64 52.98 52.14 52.20 52.36 51.38 45.61 49.47 49.47 49.25 51.98 51.23 55.50 59.23 62.47 63.11 61.90
50.19 50.01 49.67 55.68 54.02 58.50 57.58 55.55 45.67 41.30 51.85 48.91 50.43 53.11 51.01 50.25 51.62 52.63 52.37 52.13 49.46 47.15 47.33 50.38 50.52 53.98 53.62 50.79 52.89 51.99 51.41 44.69 44.13 44.38 44.03 51.36 49.85 51.37 54.25 55.87 55.49 56.48 61.77 63.08 62.54
49.23 48.83 55.19 57.65 59.18 59.38 56.43 49.61 40.61 46.89 48.86 52.56 52.17 52.83 50.16 51.23 50.83 50.94 51.71 49.76 52.02 51.01 48.18 46.09 44.44 51.81 53.77 52.15 50.51 50.86 51.72 46.15 40.77 41.19 43.77 50.05 45.57 49.87 56.69 57.82 56.67 59.84 62.90 62.41 62.02
48.37 56.27 58.50 61.63 63.06 61.31 52.02 43.01 43.85 47.30 50.31 50.69 51.53 48.89 50.18 51.36 50.92 50.46 50.96 50.48 51.80 52.09 48.60 47.52 46.99 53.28 53.40 54.06 53.25 50.54 48.46 52.73 48.25 48.60 45.59 45.68 50.46 54.78 56.15 55.95 56.00 60.24 62.05 60.86 61.78
50.18 56.31 58.06 63.05 64.11 59.70 48.59 42.81 46.48 49.83 50.49 51.41 47.48 50.20 47.84 50.25 49.74 50.00 50.05 52.45 51.81 53.50 54.83 52.14 47.81 52.41 52.79 53.50 53.57 52.73 53.84 47.74 48.24 41.86 40.14 44.73 46.77 46.80 52.08 54.72 56.27 56.46 61.37 61.55 61.62
52.32 53.29 60.40 63.21 63.27 55.61 45.71 46.20 47.99 50.49 50.39 48.88 49.11 48.96 49.86 49.38 51.09 50.17 49.68 52.41 53.27 53.19 53.95 52.96 53.09 50.45 52.43 50.00 49.26 50.05 49.34 51.13 51.37 48.46 42.58 41.58 44.78 55.71 53.99 55.72 56.50 57.65 59.30 61.38 61.08
52.11 48.07 60.86 61.74 51.03 52.74 49.50 51.33 49.77 50.21 51.27 50.17 51.12 50.67 49.96 51.09 50.62 50.64 50.73 52.36 55.04 54.28 51.12 53.84 53.28 48.97 49.86 53.50 54.17 52.27 50.32 51.63 45.95 46.09 47.90 47.33 45.21 55.32 55.90 55.38 55.48 56.18 59.17 61.13 61.39
47.92 50.60 58.32 60.22 46.79 48.67 52.62 53.56 54.38 53.35 50.25 49.37 48.99 51.51 52.17 50.02 49.18 51.29 53.05 55.94 55.28 54.18 53.42 56.22 51.99 46.36 48.67 51.89 53.55 50.15 51.39 53.63 53.63 51.79 44.97 44.04 45.77 55.68 55.90 54.77 55.50 55.59 58.94 61.01 61.11
50.70 45.88 53.41 56.26 54.87 51.15 50.48 49.89 50.02 54.79 52.53 51.80 50.36 51.43 50.37 49.84 51.44 50.71 51.58 55.65 55.96 54.69 57.90 59.43 55.62 50.45 45.16 49.21 51.60 49.30 50.32 52.15 53.56 48.82 47.02 46.93 49.23 51.90 53.83 54.50 55.98 56.77 57.45 59.56 60.63
50.38 47.68 49.35 44.17 45.95 45.99 47.95 49.50 47.59 48.47 52.88 53.56 52.30 50.38 49.59 48.87 49.02 49.00 52.02 53.40 56.14 56.17 55.53 58.50 51.51 51.17 50.54 51.50 52.69 50.14 50.35 50.08 49.15 51.02 47.81 48.57 49.25 52.54 52.80 54.49 56.08 58.23 58.49 58.79 59.13
45.39 44.10 46.99 44.28 46.49 46.28 45.89 45.86 46.32 50.33 51.05 50.02 51.03 50.97 52.78 50.18 51.97 49.10 52.41 53.75 50.98 53.30 55.61 59.07 51.08 51.70 49.41 50.95 51.33 48.84 50.44 51.09 50.05 49.96 50.15 50.76 50.17 55.50 56.73 56.79 55.74 55.58 57.94 57.89 58.53
50.22 48.52 45.38 43.34 44.58 44.24 45.11 46.20 47.07 48.11 49.41 51.92 51.22 50.11 50.14 51.03 55.08 56.63 57.06 57.18 56.84 53.75 53.11 52.51 53.19 51.77 46.84 50.08 50.02 46.90 50.64 51.40 51.11 52.06 51.30 48.16 52.53 55.36 54.37 55.31 55.60 56.48 58.03 58.26 58.71
MSLP
1018.59 1018.23 1017.86 1017.46 1017.10 1016.65 1016.20 1015.70 1015.20 1014.82 1014.51 1014.11 1013.73 1013.33 1013.06 1012.77 1012.07 1011.27 1009.27 1007.30 1007.15 1006.72 1007.19 1006.46 1005.59 1005.05 1004.66 1004.11 1003.26 1002.57 1001.94 1001.07 1000.11 999.67 1001.71 1003.07 1004.32 1003.77 1003.83 1004.35 1005.47 1005.31 1006.21 1007.92 1008.11
1018.62 1018.31 1017.91 1017.47 1017.04 1016.51 1016.06 1015.56 1015.09 1014.66 1014.26 1013.93 1013.54 1013.24 1013.01 1012.76 1011.47 1009.08 1006.68 1006.73 1006.75 1006.94 1006.76 1006.03 1004.73 1004.32 1003.89 1003.45 1002.95 1002.28 1001.68 1000.71 999.96 999.15 999.36 1000.74 1001.91 1002.85 1004.18 1005.13 1006.65 1007.07 1007.52 1007.96 1008.03
1018.77 1018.37 1017.93 1017.46 1017.07 1016.56 1015.94 1015.28 1014.88 1014.51 1014.11 1013.75 1013.40 1013.17 1012.96 1012.50 1010.02 1006.05 1005.33 1006.27 1006.52 1006.73 1006.46 1005.29 1004.23 1003.47 1003.16 1002.65 1002.11 1001.77 1001.28 1000.47 999.55 999.00 999.12 999.73 1002.33 1004.41 1004.67 1006.00 1006.76 1007.53 1007.96 1007.98 1008.85
1018.96 1018.52 1018.08 1017.60 1017.11 1016.49 1015.79 1015.07 1014.54 1014.20 1013.84 1013.49 1013.18 1012.93 1012.77 1011.85 1007.83 1005.46 1005.92 1006.25 1006.44 1006.36 1006.18 1005.25 1004.07 1003.26 1002.64 1001.94 1001.41 1001.10 1000.81 1000.32 999.48 999.15 999.38 1000.01 1003.26 1008.47 1009.42 1007.69 1006.89 1007.65 1008.30 1009.25 1009.92
1019.12 1018.62 1018.13 1017.61 1016.96 1016.23 1015.51 1014.86 1014.36 1013.92 1013.51 1013.23 1012.99 1012.83 1012.38 1009.74 1005.97 1005.51 1006.06 1006.09 1006.15 1006.17 1005.40 1004.40 1003.51 1002.91 1002.09 1001.37 1000.70 1000.61 1000.37 999.90 999.64 999.80 999.86 1000.38 1002.00 1004.70 1006.63 1007.86 1008.01 1008.05 1008.78 1009.38 1010.12
1019.12 1018.51 1017.95 1017.30 1016.69 1015.94 1015.20 1014.58 1014.12 1013.65 1013.17 1012.85 1012.74 1012.87 1011.52 1007.75 1004.08 1004.78 1005.23 1005.59 1005.22 1005.28 1004.54 1003.56 1002.80 1002.23 1001.50 1000.78 1000.22 1000.08 1000.33 999.88 999.93 1000.14 1000.37 1000.71 1002.63 1004.06 1007.00 1008.05 1008.05 1008.13 1008.89 1009.70 1010.50
1019.08 1018.44 1017.83 1017.08 1016.33 1015.65 1014.88 1014.17 1013.62 1013.23 1012.75 1012.42 1012.49 1012.12 1009.51 1005.91 1003.68 1003.57 1004.35 1004.82 1004.92 1004.32 1003.62 1002.93 1002.46 1001.93 1001.60 1000.73 1000.13 1000.21 1000.14 1000.01 1000.19 1000.33 1000.74 1001.28 1002.85 1003.90 1006.53 1007.67 1008.21 1008.65 1009.46 1010.42 1011.06
1018.97 1018.35 1017.70 1016.90 1016.10 1015.22 1014.39 1013.77 1013.11 1012.65 1012.27 1011.99 1012.19 1011.24 1007.35 1003.52 1003.57 1003.50 1003.78 1003.93 1003.97 1003.56 1003.38 1002.73 1002.42 1002.33 1001.61 1000.79 1000.34 1000.29 1000.40 999.89 999.84 1000.24 1000.79 1001.43 1002.71 1004.48 1006.16 1007.40 1008.41 1009.10 1009.99 1010.81 1011.61
1018.98 1018.23 1017.46 1016.69 1015.85 1014.78 1013.84 1013.03 1012.45 1012.06 1011.75 1011.92 1011.62 1009.76 1005.59 1003.63 1003.33 1003.10 1003.26 1003.15 1003.32 1003.50 1003.34 1003.12 1003.16 1002.67 1001.85 1000.98 1000.47 1000.39 999.68 999.46 998.93 999.81 1000.44 1001.39 1003.02 1005.02 1005.95 1006.90 1008.02 1008.99 1009.87 1010.79 1012.17
1018.99 1018.10 1017.22 1016.39 1015.54 1014.52 1013.25 1011.68 1011.38 1011.61 1011.21 1010.65 1009.21 1007.88 1004.17 1002.75 1002.59 1002.79 1002.92 1002.84 1003.11 1003.20 1003.34 1003.44 1003.08 1002.39 1001.63 1000.71 999.84 999.48 999.37 998.67 998.42 999.60 1000.19 1001.18 1002.66 1004.96 1006.04 1006.43 1007.38 1008.43 1009.59 1010.85 1012.27
1018.94 1017.97 1016.97 1015.97 1015.07 1014.51 1013.11 1010.29 1010.88 1010.36 1009.01 1006.91 1005.30 1004.08 1001.82 1002.05 1001.90 1002.21 1002.64 1002.86 1002.80 1002.91 1002.84 1002.71 1002.32 1001.30 1000.58 1000.14 999.67 998.68 998.19 997.98 997.62 998.97 1000.69 1000.83 1002.41 1004.43 1005.92 1006.27 1006.72 1007.81 1009.00 1010.49 1012.01
1018.79 1017.84 1016.76 1015.57 1014.49 1013.83 1013.61 1010.18 1008.10 1007.57 1005.96 1004.74 1004.10 1003.15 1001.90 1001.03 1001.58 1001.95 1002.29 1002.69 1002.55 1002.17 1002.34 1002.01 1001.25 1000.58 1000.01 999.55 999.30 998.72 998.17 997.55 997.92 999.16 1000.28 1000.59 1002.37 1004.92 1006.14 1006.42 1006.30 1006.98 1008.16 1009.86 1011.96
1018.63 1017.76 1016.68 1015.12 1013.90 1012.46 1010.54 1008.49 1007.21 1006.80 1005.68 1002.88 1001.59 1001.27 1001.38 1001.03 1000.72 1000.99 1001.84 1002.17 1002.01 1001.94 1001.33 1000.88 999.90 999.60 999.52 999.09 998.67 998.65 998.43 997.82 998.06 999.27 1000.16 1001.03 1002.46 1004.78 1007.08 1006.90 1006.56 1006.60 1007.71 1009.21 1011.42
1018.39 1017.49 1016.66 1015.22 1013.45 1010.95 1008.89 1007.51 1006.85 1006.82 1005.07 1000.79 999.56 999.39 1000.14 1000.60 1000.50 1000.63 1000.72 1001.67 1001.62 1001.05 1000.65 999.98 999.48 998.74 998.77 998.56 998.58 998.42 998.61 998.32 998.27 999.29 1000.20 1001.14 1002.07 1003.97 1004.84 1006.08 1006.66 1006.80 1007.42 1009.12 1010.92
1018.05 1017.15 1016.31 1016.52 1014.32 1010.88 1008.20 1007.70 1007.46 1007.05 1003.75 998.99 998.48 998.30 999.02 999.76 999.41 999.95 1000.18 1000.76 1000.78 1000.48 1000.28 999.31 998.86 998.63 998.61 998.45 998.73 998.56 998.30 998.54 998.87 999.80 1000.46 1001.63 1002.48 1002.18 1003.49 1004.94 1007.01 1007.59 1007.41 1008.76 1010.41
1017.29 1016.56 1016.00 1013.23 1013.76 1010.30 1008.95 1007.87 1007.74 1006.33 1002.19 998.63 998.35 998.81 998.91 999.12 999.31 999.04 1000.00 1000.21 1000.61 1000.30 999.70 999.30 998.24 998.17 998.07 998.17 998.04 998.51 998.28 998.47 999.40 999.80 1000.26 1000.52 1001.86 1002.98 1004.97 1006.88 1008.07 1008.09 1006.89 1007.72 1009.39
1016.55 1015.12 1015.71 1013.61 1010.51 1009.39 1008.91 1007.99 1006.86 1004.44 1000.58 998.77 997.95 998.35 998.67 998.60 998.97 999.17 999.39 999.68 1000.07 999.96 999.61 999.03 998.21 997.69 998.00 997.84 997.91 998.19 998.70 999.09 999.65 999.74 999.67 1000.21 1001.50 1002.28 1004.87 1006.13 1006.19 1006.06 1005.46 1006.47 1008.85
1015.83 1013.68 1012.19 1011.71 1010.14 1009.59 1009.14 1008.05 1005.93 1003.04 1001.01 999.09 998.33 997.69 997.89 998.26 998.37 998.68 998.61 999.16 999.75 999.66 999.09 998.46 998.01 997.64 997.83 997.47 997.13 997.82 998.68 998.65 998.97 999.82 1001.17 1001.87 1001.25 1003.33 1003.90 1004.54 1004.93 1005.16 1004.61 1006.65 1007.49
1015.13 1011.70 1010.34 1009.41 1009.75 1009.77 1009.08 1006.95 1004.82 1003.38 1001.45 1000.04 998.87 998.28 997.84 997.77 997.93 998.16 997.98 998.53 998.73 999.40 999.03 997.82 997.46 996.84 997.28 997.55 997.39 998.04 998.57 998.75 999.20 999.90 1000.75 1001.92 1002.37 1001.94 1002.64 1003.05 1003.35 1003.29 1005.05 1007.20 1008.87
1015.39 1011.80 1009.07 1008.94 1009.37 1009.65 1008.71 1006.36 1004.62 1003.07 1002.08 1001.00 1000.24 999.46 998.50 997.64 997.50 997.55 997.40 997.70 997.94 998.07 998.60 997.91 997.54 996.48 997.16 997.74 997.36 997.50 998.25 998.81 999.38 1000.25 1000.54 1000.58 1001.09 1001.92 1002.10 1002.44 1003.14 1003.65 1004.58 1006.13 1007.60
1014.83 1010.71 1009.03 1008.77 1009.56 1008.93 1007.47 1005.62 1004.24 1003.08 1002.40 1001.66 1000.93 1000.61 999.66 998.57 997.49 996.94 996.97 996.82 997.08 997.29 997.86 997.95 998.17 998.40 997.65 997.48 997.42 997.87 998.24 998.90 999.39 1000.81 1001.15 1001.64 1002.33 1001.82 1001.39 1001.55 1002.24 1002.99 1003.88 1005.21 1006.79
1014.08 1010.39 1008.35 1008.77 1008.64 1007.20 1006.10 1004.90 1004.11 1003.02 1002.26 1001.59 1001.26 1001.55 1000.79 999.88 998.69 998.83 997.69 996.27 996.15 996.67 996.99 997.73 998.17 998.15 998.47 997.90 998.23 997.94 998.36 999.06 999.74 1000.89 1001.44 1002.32 1003.06 1002.38 1001.60 1001.69 1002.19 1002.66 1003.57 1004.87 1006.30
1015.09 1010.87 1007.80 1008.48 1007.87 1006.26 1005.43 1005.03 1004.40 1003.09 1002.20 1002.09 1001.83 1001.48 1001.44 1000.74 999.94 999.11 998.54 996.73 995.99 996.40 996.88 997.58 998.17 998.52 998.58 998.85 998.29 998.12 998.33 999.04 999.84 1001.80 1002.74 1003.21 1002.27 1002.15 1001.92 1002.12 1002.23 1002.62 1003.16 1004.73 1006.10
1015.50 1010.93 1008.27 1008.11 1007.83 1007.78 1006.77 1006.02 1005.07 1003.58 1002.56 1002.53 1002.32 1002.18 1001.67 1000.98 1000.34 999.53 999.01 997.62 996.85 996.49 997.29 997.89 998.20 998.44 998.43 998.37 999.14 998.61 998.75 998.95 1000.11 1001.02 1001.80 1002.81 1001.64 1002.16 1002.02 1002.32 1002.09 1002.62 1003.22 1004.25 1005.70
1015.23 1012.58 1012.42 1010.54 1009.40 1009.64 1008.66 1007.39 1006.04 1004.62 1004.30 1004.19 1003.17 1002.34 1002.27 1002.03 1001.19 1000.57 999.68 998.86 997.95 997.94 997.94 998.38 998.66 998.92 998.88 998.69 999.17 999.81 1000.31 999.18 999.68 1000.12 1000.54 1000.75 1000.70 1000.81 1001.68 1002.80 1002.07 1002.19 1003.16 1004.18 1005.65
1016.86 1015.84 1014.54 1013.08 1011.35 1010.02 1008.82 1007.71 1006.84 1006.23 1006.22 1005.50 1002.83 1003.88 1003.24 1003.03 1002.67 1001.60 1001.11 1000.78 1002.12 1000.77 999.73 999.16 999.23 999.60 999.21 998.85 998.94 999.45 1000.02 999.53 1000.09 1000.84 1000.58 1000.21 1000.14 1000.85 1002.04 1002.07 1002.18 1002.65 1003.07 1004.18 1005.74
1018.11 1017.59 1016.33 1013.88 1012.05 1010.37 1008.81 1008.22 1007.99 1007.74 1006.84 1005.88 1005.19 1005.59 1003.32 1004.13 1003.10 1002.00 1002.13 1002.15 1002.75 1003.13 1002.39 1002.53 1000.05 999.83 999.15 998.94 998.37 999.34 998.98 999.23 999.99 1000.52 1001.14 1000.37 999.73 1000.63 1001.42 1001.96 1002.74 1002.98 1003.57 1004.57 1006.03
Wind_Speed
19 19 19 18 17 17 18 17 17 16 15 15 15 14 13 13 17 10 14 9 5 8 3 12 14 15 15 17 19 19 13 14 21 19 15 17 16 15 18 19 20 20 21 19 14
20 20 20 20 19 18 18 18 18 17 16 16 15 14 13 11 12 20 18 8 7 6 10 14 14 14 13 17 16 17 13 20 21 21 10 22 17 18 19 19 18 20 20 16 14
21 21 21 21 21 19 19 18 17 18 17 17 15 13 12 13 13 7 9 11 8 8 14 17 15 14 14 15 18 19 16 21 19 15 11 7 21 13 9 15 18 19 18 14 16
22 21 22 22 21 20 20 20 20 20 19 17 15 13 10 8 5 6 10 10 8 9 14 16 16 16 14 16 17 18 18 19 22 12 4 5 22 14 18 15 19 19 17 15 15
22 22 23 22 22 22 21 21 21 21 20 18 15 10 8 9 17 11 9 9 9 11 15 18 15 15 15 17 16 14 17 16 14 11 8 7 15 19 21 17 18 19 17 15 14
21 23 24 24 23 22 22 20 20 21 21 17 12 6 7 15 2 14 13 12 12 13 15 17 13 15 17 16 12 11 11 16 9 9 9 11 21 11 13 13 14 17 15 14 14
22 22 23 24 24 24 22 22 21 21 19 15 9 7 11 18 5 8 10 12 14 15 16 14 16 17 10 17 11 13 11 10 11 13 11 8 7 9 17 14 14 15 14 13 10
23 24 24 25 25 25 24 23 23 20 15 9 8 9 10 13 21 9 10 13 15 13 14 13 7 12 17 15 7 11 11 13 15 13 16 14 15 18 20 17 15 15 14 13 13
25 25 25 26 26 26 26 26 24 16 10 5 8 10 15 3 12 12 11 12 10 11 9 7 8 14 15 16 10 13 14 20 17 18 14 20 6 15 18 18 16 15 14 14 13
25 26 26 26 26 26 29 28 4 9 6 9 13 10 19 14 13 14 12 12 10 11 11 10 9 13 14 13 13 16 16 17 15 17 17 17 13 18 16 18 17 16 15 14 13
26 27 27 28 26 23 18 4 5 7 11 14 10 12 4 18 13 12 14 12 11 12 13 15 13 14 18 18 19 20 15 15 16 17 15 20 19 21 19 18 19 17 16 15 14
28 27 28 29 28 26 10 8 12 11 15 17 25 21 20 10 9 12 15 14 16 16 15 15 15 19 17 18 18 21 16 15 14 23 14 13 18 17 16 17 18 18 18 17 17
27 27 28 31 31 12 10 16 9 11 10 18 23 25 21 17 13 16 19 18 15 17 17 18 20 20 17 18 16 17 15 15 13 12 8 12 15 15 17 17 18 17 17 18 18
27 27 26 31 9 12 11 7 7 11 8 13 13 20 24 19 19 17 21 18 19 20 18 19 19 15 13 14 11 16 15 18 8 6 10 11 15 24 27 22 17 16 16 14 18
27 27 25 13 13 8 11 12 12 8 7 9 9 3 16 24 12 23 19 18 22 21 15 17 15 17 12 16 17 15 17 17 8 13 9 9 9 18 19 15 14 12 15 15 15
30 27 23 3 8 15 13 11 6 7 10 8 10 8 16 22 25 10 21 20 18 22 18 19 19 16 12 15 15 13 16 10 10 10 13 21 17 6 6 8 7 14 19 19 18
32 34 13 8 8 13 11 8 7 10 11 11 9 13 15 18 22 23 20 20 18 15 17 19 20 11 14 17 16 15 10 8 11 13 14 13 13 6 17 27 27 29 20 20 18
35 35 6 9 9 9 6 7 11 11 20 14 11 14 15 18 19 24 21 18 22 20 14 17 15 16 15 19 13 12 13 11 12 7 6 11 9 10 19 19 24 26 20 16 19
34 7 8 6 7 4 7 11 13 14 19 17 22 11 16 16 18 22 19 18 20 19 20 14 16 17 19 16 13 13 16 18 14 12 11 6 16 16 13 12 7 10 19 21 17
11 8 6 5 2 5 8 15 20 20 24 23 16 18 21 16 18 19 23 20 21 22 20 20 13 15 14 17 20 15 10 13 8 12 14 9 5 5 4 13 10 8 21 17 16
5 7 7 5 3 6 10 15 19 19 22 23 16 18 23 22 19 17 21 19 21 20 20 20 12 12 12 13 16 14 8 9 6 2 8 6 1 6 6 11 14 15 14 20 17
7 7 9 4 7 9 12 19 20 19 21 20 13 16 23 22 16 17 23 21 19 19 22 18 7 8 20 15 16 17 17 14 9 9 5 3 4 11 10 3 3 5 13 18 18
8 9 7 3 8 9 14 17 20 24 13 13 19 18 19 20 19 15 20 22 15 17 18 13 11 12 13 13 17 17 18 12 2 5 2 6 3 5 7 1 1 4 12 17 16
7 6 4 4 9 14 12 15 13 25 16 15 16 19 20 19 20 18 16 21 18 17 7 4 9 12 14 14 9 12 17 17 13 5 10 20 9 6 6 12 8 9 7 17 15
5 5 7 7 13 18 17 17 19 22 15 21 17 16 15 16 19 16 22 20 18 7 8 7 10 15 18 22 19 6 26 21 18 15 12 12 9 4 16 19 6 9 7 14 15
7 7 9 14 16 16 13 16 18 15 8 15 15 16 9 5 18 17 12 14 5 19 14 9 11 14 21 24 16 7 18 18 4 12 13 15 4 10 9 6 4 2 8 13 14
9 8 7 9 14 14 12 12 14 14 17 16 13 14 10 6 20 12 15 14 11 6 20 14 11 14 18 23 23 28 20 18 12 13 19 11 2 8 3 4 4 2 4 10 13
Wind_Direction
3 359 355 350 345 343 340 338 336 332 328 324 320 316 314 317 302 250 255 233 200 144 224 270 227 237 241 255 259 264 271 270 279 293 143 158 159 196 100 87 67 62 108 125 144
1 356 352 347 342 340 337 335 333 328 325 321 319 314 312 319 289 272 250 170 149 160 242 241 234 228 236 237 245 246 255 262 275 288 153 176 185 117 106 105 99 96 112 134 152
357 352 348 345 339 336 333 332 329 325 321 317 315 310 311 305 282 240 95 150 162 185 239 247 254 233 232 236 228 236 243 258 257 292 320 81 63 39 108 119 125 123 126 123 88
353 349 344 339 334 331 331 330 327 322 318 313 309 310 314 268 305 93 145 157 172 218 229 244 248 250 235 236 229 228 242 252 271 321 276 305 108 115 239 56 119 125 106 109 119
348 345 341 336 331 329 328 327 323 317 313 307 301 305 286 239 246 134 155 141 167 195 222 236 230 233 234 242 234 237 244 246 266 293 248 264 96 100 104 121 130 127 126 131 124
343 342 338 334 330 327 324 321 316 312 308 300 290 287 250 262 143 144 175 165 202 210 230 242 235 238 253 253 244 225 247 259 234 236 235 212 119 108 119 131 128 127 123 123 132
341 338 335 332 328 325 321 318 314 309 302 291 258 240 265 249 314 151 164 192 212 210 241 235 251 273 252 267 249 234 218 234 230 204 216 172 140 138 138 143 137 130 128 123 122
340 336 332 331 325 322 319 315 309 305 296 286 214 234 262 251 222 216 192 204 212 230 250 266 275 290 264 277 234 237 240 234 208 213 222 185 188 137 150 157 156 152 143 146 124
337 334 330 328 324 321 317 310 302 292 291 215 213 224 254 158 211 223 208 218 215 227 243 323 274 249 248 252 226 221 235 225 213 197 196 203 143 147 167 171 167 161 158 138 122
335 332 327 324 323 321 319 295 271 301 219 204 262 263 240 226 196 214 205 229 196 207 218 221 230 235 243 226 229 217 221 251 192 185 211 186 221 161 187 182 176 169 163 150 146
334 330 326 323 321 322 330 319 214 187 228 239 202 229 256 217 180 209 194 221 203 216 223 206 229 220 229 234 242 257 240 223 231 152 209 205 164 172 183 197 177 180 173 162 151
333 329 326 322 319 316 285 278 329 312 300 259 241 256 257 170 189 205 195 204 216 223 213 239 222 243 233 240 233 260 273 267 113 168 202 226 162 162 186 204 199 185 173 164 137
331 327 326 321 318 288 255 297 310 298 285 282 241 233 229 245 228 200 197 208 220 228 236 231 238 212 246 236 245 239 253 271 157 171 229 262 217 113 241 219 209 191 177 165 152
329 326 328 327 288 329 283 354 302 350 277 259 194 222 210 224 231 246 185 210 230 231 229 241 244 265 219 245 243 253 230 259 233 175 228 240 247 178 183 196 207 202 182 161 156
325 324 322 317 313 286 348 338 336 283 286 96 171 138 198 204 217 205 234 198 234 233 241 247 233 249 228 241 234 244 233 236 160 216 242 212 235 260 203 183 192 211 204 156 164
323 320 324 236 209 252 285 297 272 236 247 239 146 204 204 207 224 202 208 207 226 244 252 252 258 229 217 240 238 218 265 189 255 245 235 241 213 288 58 37 82 260 207 176 167
322 312 303 291 258 344 326 280 235 243 231 255 196 194 211 207 220 230 189 206 223 223 239 245 254 232 212 226 214 218 215 206 219 233 239 290 190 204 157 185 178 215 195 178 158
323 307 199 225 292 297 282 236 247 266 231 282 306 295 199 227 205 223 201 213 215 237 245 228 219 218 234 248 201 199 216 239 224 290 323 308 294 159 176 189 203 212 185 154 152
317 311 244 215 220 273 250 231 236 252 279 313 319 246 269 218 232 216 203 218 218 214 243 243 228 216 202 232 219 199 230 242 269 286 210 178 276 124 122 106 106 116 126 154 166
317 295 261 72 340 230 240 252 278 277 275 293 281 295 292 259 220 222 222 211 225 215 232 253 274 221 190 215 233 233 210 232 236 265 281 281 99 86 172 141 123 128 155 145 156
250 281 103 115 180 231 251 261 268 259 265 283 289 278 287 298 287 239 225 224 215 232 211 245 264 265 212 208 220 229 226 257 236 307 282 297 339 272 223 151 169 171 168 147 158
306 287 129 195 259 244 251 251 250 264 284 289 267 264 283 294 312 265 288 247 210 212 221 218 257 196 229 208 234 243 228 228 258 234 251 29 113 3 12 93 61 55 152 152 156
301 285 257 199 271 288 320 319 323 302 279 280 272 276 259 281 290 290 266 288 244 204 227 201 221 247 215 234 228 227 243 256 199 116 94 313 245 162 280 277 157 176 159 143 155
283 308 309 301 273 324 316 309 292 268 305 251 259 269 278 269 268 278 280 288 287 224 127 240 223 222 247 217 230 233 234 234 180 192 187 220 163 139 4 251 222 181 174 156 158
269 346 16 302 323 329 310 305 303 299 347 290 330 239 277 289 277 275 279 276 301 161 188 183 231 233 233 260 208 7 292 227 241 230 219 246 225 315 179 220 96 145 161 145 153
343 342 343 297 291 294 289 273 283 338 3 310 267 329 313 292 317 280 333 311 137 310 285 194 213 234 246 247 206 194 263 276 302 322 321 237 225 74 74 17 44 312 167 155 149
9 339 296 293 291 282 287 340 333 326 308 278 349 349 314 337 299 322 305 294 286 268 296 313 206 213 234 239 252 198 204 212 223 212 247 281 142 104 85 108 339 225 143 149 148